#timestamp,LO_Frequency,Hit,StdDev 
1560204015.4,286046998.1,P
1560204035.2,286047000.3,N
1560204055.1,286047000.8,N
1560204056.0,286047000.8,N
1560204075.8,286046998.2,N
1560204095.6,286047000.8,N
1560204115.5,286046999.0,N
1560204135.3,286046998.7,N
1560204155.2,286046996.8,N
1560204175.9,286046996.7,N
1560204195.7,286046996.7,N
1560204215.6,286046997.6,N
1560204235.4,286046997.2,N
1560204255.2,286046995.0,N
1560204275.1,286046997.0,N
1560204276.0,286046997.0,N
1560204295.8,286046996.8,N
1560204315.7,286046996.5,N
1560204335.5,286046996.5,N
1560204355.3,286046996.6,N
1560204375.2,286046996.5,N
1560204395.0,286046997.2,N
1560204395.9,286046997.2,N
1560204415.7,286046997.3,N
1560204435.6,286046996.8,N
1560204455.4,286046998.5,N
1560204475.3,286046998.8,N
1560204495.1,286046998.2,N
1560204496.0,286046998.2,N
1560204515.8,286047000.1,N
1560204535.7,286047001.0,N
1560204555.5,286047001.1,N
1560204575.3,286046998.7,N
1560204595.2,286046999.2,N
1560204615.0,286046998.6,N
1560204615.9,286046998.6,N
1560204635.8,286046996.8,N
1560204655.6,286046999.3,N
1560204675.4,286046998.9,N
1560204695.3,286046998.1,N
1560204715.1,286046998.9,N
1560204735.8,286046998.9,N
1560204755.7,286046999.3,N
1560204775.5,286046998.9,N
1560204795.4,286046999.4,N
1560204815.2,286047000.4,N
1560204835.0,286047000.9,N
1560204835.9,286047000.9,N
1560204855.8,286047000.0,N
1560204875.6,286046999.7,N
1560204895.4,286047000.4,N
1560204915.3,286046999.8,N
1560204935.1,286047000.2,N
1560204955.9,286047001.0,N
1560204975.7,286047000.4,N
1560204995.5,286046998.8,N
1560205015.4,286046998.1,N
1560205035.2,286046998.8,N
1560205055.0,286046998.5,N
1560205055.9,286046998.5,N
1560205075.8,286046998.3,N
1560205095.6,286046998.3,N
1560205115.5,286046998.2,N
1560205135.3,286046998.2,N
1560205155.1,286047001.2,N
1560205175.9,286047000.8,N
1560205195.7,286047000.4,N
1560205215.5,286047000.7,N
1560205235.4,286046998.5,N
1560205255.2,286046996.9,Y
1560205275.1,286046996.6,P
1560205276.0,286046996.6,N
1560205295.8,286046997.2,N
1560205315.6,286046998.9,N
1560205335.5,286046998.1,N
1560205355.3,286047001.0,N
1560205375.2,286047001.1,N
1560205395.9,286046998.1,N
1560205415.7,286046998.8,N
1560205435.6,286046999.0,N
1560205455.4,286046997.0,N
1560205475.2,286046999.4,N
1560205495.1,286046997.1,N
1560205496.0,286046997.1,N
1560205515.8,286046997.6,N
1560205535.6,286046997.5,N
1560205555.5,286046997.9,N
1560205575.3,286046997.6,N
1560205595.2,286046995.7,Y
1560205615.9,286046999.2,P
1560205635.7,286046996.5,P
1560205655.6,286046996.9,N
1560205675.4,286046996.7,Y
1560205695.3,286047001.2,P
1560205715.1,286046999.1,N
1560205716.0,286046999.1,N
1560205735.8,286046999.4,N
1560205755.7,286046996.6,Y
1560205775.5,286046999.1,P
1560205795.3,286046993.8,P
1560205815.2,286046990.2,P
1560205835.0,286046992.8,N
1560205835.9,286046992.8,N
1560205855.8,286046990.7,N
1560205875.6,286046990.3,N
1560205895.4,286046991.5,N
1560205915.3,286046989.1,Y
1560205935.1,286046997.8,P
1560205955.8,286046995.5,N
1560205975.7,286046995.2,N
1560205995.5,286046993.8,Y
1560206015.4,286046999.6,P
1560206035.2,286046998.9,N
1560206055.0,286046998.5,N
1560206055.9,286046998.5,N
1560206075.8,286046998.5,N
1560206095.6,286046998.6,N
1560206115.4,286046998.3,N
1560206135.3,286046999.1,N
1560206155.1,286046998.7,N
1560206175.9,286046999.5,N
1560206195.7,286046999.0,N
1560206215.5,286046999.4,N
1560206235.4,286046999.3,N
1560206255.2,286046996.7,Y
1560206275.0,286046996.5,P
1560206275.9,286046996.5,P
1560206295.8,286046999.4,N
1560206345.7,286046996.1,E
1560206355.6,286046997.1,N
1560206375.4,286047000.3,P
1560206395.2,286046998.8,N
1560206415.1,286046998.1,N
1560206416.0,286046998.1,N
1560206435.8,286046998.5,N
1560206455.7,286046998.6,N
1560206475.5,286046998.4,N
1560206495.3,286046998.6,N
1560206515.2,286046998.2,N
1560206535.0,286047001.1,N
1560206535.9,286047001.1,N
1560206555.7,286046998.3,N
1560206575.6,286046998.3,N
1560206595.4,286046999.5,N
1560206615.3,286046997.8,N
1560206635.1,286046997.3,N
1560206636.0,286046997.3,N
1560206655.8,286046997.2,N
1560206675.7,286046997.1,N
1560206695.5,286046995.1,Y
1560206715.3,286046996.7,P
1560206735.2,286046997.7,N
1560206755.0,286046997.6,P
1560206755.9,286046997.6,Y
1560206775.8,286046998.4,P
1560206795.6,286046998.4,P
1560206815.4,286046998.9,P
1560206835.3,286047001.9,Y
1560206855.1,286047001.3,P
1560206875.9,286047005.8,P
1560206895.7,286047004.5,N
1560206915.5,286047005.4,N
1560206935.4,286047007.0,N
1560206955.2,286047006.7,N
1560207005.1,286047007.9,E
1560207015.9,286047005.0,N
1560207035.7,286047001.7,P
1560207055.6,286047001.9,N
1560207075.4,286047005.6,Y
1560207095.2,286047002.0,P
1560207115.1,286047001.9,P
1560207116.0,286047001.9,P
1560207135.8,286047001.8,Y
1560207155.7,286046999.7,P
1560207175.5,286047002.5,N
1560207195.3,286047002.2,N
1560207215.2,286047002.2,N
1560207235.0,286047004.0,Y
1560207235.9,286047004.0,P
1560207255.7,286046999.7,N
1560207275.6,286047001.9,N
1560207295.4,286047002.2,N
1560207315.3,286047002.5,N
1560207335.1,286047002.0,N
1560207355.8,286047001.6,N
1560207375.7,286047004.3,Y
1560207395.5,286047000.6,P
1560207415.4,286047002.7,P
1560207435.2,286047000.0,N
1560207455.0,286046999.7,N
1560207455.9,286046999.7,N
1560207475.8,286047002.8,N
1560207495.6,286047001.1,N
1560207515.4,286046996.7,N
1560207535.3,286046996.8,N
1560207555.1,286046995.8,N
1560207575.9,286046993.9,N
1560207595.7,286046994.7,N
